Back to catalog

COSMOS 2550

AliveNavigationVLEO
NORAD 48865·PAYLOAD·🇷🇺 Russia

Launched Jun 25, 2021 from Plesetsk Cosmodrome

Loading…

Next Passes (next 24 hours)

TLE

FreshSource: Space-Track

Epoch: Sep 14, 2026, 11:43 UTC

1 48865U 21056A   26257.48886660  .00003935  00000-0  12533-3 0  9990
2 48865  67.1433 189.7672 0008351 268.3166  91.7032 15.33842725292416

Track COSMOS 2550 in real time with AllMySat

Download on the App Store